Location: Asheville, NC
(35.6000°N, 82.5500°W)
Time: 04:54:37

XW-2F - Visible Passes

Search period start: 23 March 2018 00:00
Search period end: 02 April 2018 00:00
Orbit: 507 x 527 km, 97.5° (Epoch: 22 March)

Date Brightness Start Highest point End Pass type
(mag) Time Alt. Az. Time Alt. Az. Time Alt. Az.
24 Mar ? 06:51:42 10° NE 06:54:39 21° E 06:57:34 10° SE visible
25 Mar ? 06:38:04 10° ENE 06:40:05 14° E 06:42:05 10° SE visible
31 Mar ? 06:44:46 10° NE 06:47:19 17° E 06:49:51 10° SE visible
01 Apr ? 06:31:36 10° ENE 06:32:43 11° E 06:33:50 10° ESE visible
